Change the Weather History Date:

Saturday, August 31, 2013

  Actual Average Record
Temperature  
Mean Temperature 64 °F -  
Max Temperature 73 °F 69 °F - ()
Min Temperature 56 °F 50 °F - ()
Growing Degree Days 14 (Base 50)    
Moisture  
Dew Point 59 °F    
Average Humidity 86    
Maximum Humidity 99    
Minimum Humidity 60    
Precipitation  
Precipitation 0.20 in - - ()
Sea Level Pressure  
Sea Level Pressure 29.86 in    
Wind  
Wind Speed 4 mph ()    
Max Wind Speed 10 mph    
Max Gust Speed -    
T = Trace of Precipitation, MM = Missing Value Source: Averaged Metar Reports

Daily Weather History Graph

Daily Weather History Graph

Search for Another Location

Airport or City:

Trip Planner

Search our weather history database for the weather conditions in past years. The results will help you decide how hot, cold, wet, or windy it might be!

Date:

Astronomy

Aug. 31, 2013 Rise Set
Actual Time 6:35 AM ADT 7:52 PM ADT
Civil Twilight 6:05 AM ADT 8:22 PM ADT
Nautical Twilight 5:29 AM ADT 8:58 PM ADT
Astronomical Twilight 4:50 AM ADT 9:36 PM ADT
Moon 1:53 AM ADT (8/31) 4:53 PM ADT (8/31)
Length of Visible Light 14h 16m
Length of Day
13h 16m
Waning Crescent, 21% of the Moon is Illuminated
Aug 31
Waning Crescent
Sep 5
New
Sep 12
First Quarter
Sep 19
Full
Sep 27
Last Quarter

Hourly Weather History & Observations

Time (ADT) Temp. Dew Point Humidity Pressure Visibility Wind Dir Wind Speed Gust Speed Precip Events Conditions
12:00 AM 56.5 °F 52.5 °F 87% 29.77 in - WSW 3.5 mph - N/A   Unknown
1:00 AM 57.0 °F 51.8 °F 83% 29.77 in - West 4.6 mph - N/A   Unknown
2:00 AM 57.4 °F 53.4 °F 87% 29.78 in - West 3.5 mph - N/A   Unknown
3:00 AM 57 °F 54 °F 86% 29.77 in - WSW 3.5 mph - -  
3:00 AM 57.2 °F 54.1 °F 89% 29.77 in - WSW 5.8 mph - N/A   Unknown
4:00 AM 58.3 °F 55.6 °F 91% 29.79 in - West 5.8 mph - N/A   Unknown
5:00 AM 58.1 °F 55.9 °F 93% 29.80 in - West 3.5 mph - N/A   Unknown
6:00 AM 58.8 °F 56.7 °F 93% 29.82 in - WNW 4.6 mph - N/A   Unknown
7:00 AM 59.0 °F 57.4 °F 94% 29.84 in - WNW 5.8 mph - N/A   Unknown
8:00 AM 61.2 °F 58.1 °F 90% 29.85 in - WNW 2.3 mph - N/A   Unknown
9:00 AM 61 °F 58 °F 88% 29.86 in - WNW 2.3 mph - -  
9:00 AM 61.3 °F 58.5 °F 90% 29.86 in - NW 3.5 mph - N/A   Unknown
10:00 AM 63.0 °F 59.0 °F 87% 29.88 in - SW 4.6 mph - N/A   Unknown
11:00 AM 66.9 °F 61.3 °F 82% 29.88 in - West 1.2 mph - N/A   Unknown
12:00 PM 70.3 °F 59.7 °F 69% 29.88 in - WNW 3.5 mph - N/A   Unknown
1:00 PM 69.8 °F 61.2 °F 74% 29.89 in - SSE 6.9 mph - N/A   Unknown
2:00 PM 70.0 °F 62.4 °F 77% 29.88 in - ESE 6.9 mph - N/A   Unknown
3:00 PM 72 °F 61 °F 60% 29.88 in - SSE 9.2 mph - -  
3:00 PM 72.1 °F 61.3 °F 69% 29.88 in - SSE 8.1 mph - N/A   Unknown
4:00 PM 68.9 °F 61.0 °F 76% 29.89 in - SSE 10.4 mph - N/A   Unknown
5:00 PM 70.3 °F 61.3 °F 73% 29.90 in - SSE 10.4 mph - N/A   Unknown
6:00 PM 68.4 °F 62.2 °F 81% 29.90 in - SE 6.9 mph - N/A   Unknown
7:00 PM 63.7 °F 61.7 °F 93% 29.92 in - SSE 9.2 mph - N/A   Unknown
8:00 PM 61.9 °F 60.8 °F 96% 29.92 in - South 8.1 mph - N/A   Unknown
9:00 PM 62 °F 61 °F 97% 29.94 in - South 6.9 mph - -  
9:00 PM 62.1 °F 61.3 °F 97% 29.94 in - South 6.9 mph - N/A   Unknown
10:00 PM 61.5 °F 61.2 °F 99% 29.94 in - South 2.3 mph - N/A   Unknown
11:00 PM 61.7 °F 61.3 °F 99% 29.94 in - South 3.5 mph - N/A   Unknown